This is the latest recevied weather packets stored in our database for station/object K5NAN. If no packets are shown the sender has not sent any weather packets the latest 10 day(s).
| Time | Temp. | Humidity | Pressure | Rain* | Wind** | Luminosity | Snow |
|---|---|---|---|---|---|---|---|
| 1777587245 | 16.11° C | 75% | 1012.5 hPa | 0 mm | - | 56 W/m² | - |
| 1777586940 | 16.11° C | 75% | 1012.5 hPa | 0 mm | - | 51 W/m² | - |
| 1777586636 | 16.11° C | 75% | 1012.8 hPa | 0 mm | - | 47 W/m² | - |
| 1777586332 | 16.11° C | 75% | 1012.9 hPa | 0 mm | - | 48 W/m² | - |
| 1777586031 | 16.11° C | 74% | 1012.9 hPa | 0 mm | - | 42 W/m² | - |
| 1777585731 | 16.11° C | 74% | 1012.9 hPa | 0 mm | - | 56 W/m² | - |
| 1777585430 | 16.11° C | 75% | 1012.7 hPa | 0 mm | - | 61 W/m² | - |
| 1777585126 | 16.67° C | 75% | 1012.6 hPa | 0 mm | - | 74 W/m² | - |
| 1777584822 | 16.67° C | 75% | 1012.3 hPa | 0 mm | - | 93 W/m² | - |
| 1777584520 | 16.67° C | 75% | 1012.2 hPa | 0 mm | - | 118 W/m² | - |
| 1777584216 | 16.67° C | 74% | 1012.2 hPa | 0 mm | - | 91 W/m² | - |
| 1777583916 | 16.67° C | 75% | 1012.2 hPa | 0 mm | - | 90 W/m² | - |
| 1777583612 | 16.67° C | 74% | 1012.4 hPa | 0 mm | - | 90 W/m² | - |
| 1777583311 | 17.22° C | 73% | 1012.1 hPa | 0 mm | - | 133 W/m² | - |
| 1777583005 | 17.22° C | 73% | 1011.8 hPa | 0 mm | - | 273 W/m² | - |
| 1777582704 | 16.67° C | 76% | 1011.9 hPa | 0 mm | - | 444 W/m² | - |
| 1777582403 | 16.67° C | 76% | 1012 hPa | 0 mm | - | 215 W/m² | - |
| 1777582102 | 16.67° C | 75% | 1012.3 hPa | 0 mm | - | 197 W/m² | - |
| 1777581797 | 16.67° C | 76% | 1012.4 hPa | 0 mm | - | 234 W/m² | - |
| 1777581496 | 16.67° C | 76% | 1012.7 hPa | 0 mm | - | 213 W/m² | - |
| 1777581191 | 16.11° C | 76% | 1013 hPa | 0 mm | - | 164 W/m² | - |
| 1777580886 | 16.11° C | 77% | 1013.4 hPa | 0 mm | - | 135 W/m² | - |
| 1777580580 | 16.11° C | 77% | 1013.6 hPa | 0 mm | - | 92 W/m² | - |
| 1777580276 | 16.11° C | 77% | 1013.4 hPa | 0 mm | - | 106 W/m² | - |
| 1777579974 | 16.11° C | 78% | 1013.5 hPa | 0 mm | - | 84 W/m² | - |
* Rain latest hour (hover to see other rain measurements)
** Current wind speed in m/s (hover to see current wind gust speed)